Weather History for Fullerton, CA

Change the Weather History Date:

Tuesday, February 12, 2013

  Actual Average Record
Temperature  
Mean Temperature 54 °F 58 °F  
Max Temperature 66 °F 68 °F 86 °F (2006)
Min Temperature 42 °F 47 °F 41 °F (2004)
Degree Days  
Heating Degree Days 11 8  
Month to date heating degree days 93 96  
Since 1 July heating degree days 581 813  
Cooling Degree Days 0 0  
Month to date cooling degree days 5 0  
Year to date cooling degree days 7 4  
Growing Degree Days 3 (Base 50)    
Moisture  
Dew Point 36 °F    
Average Humidity 53    
Maximum Humidity 71    
Minimum Humidity 34    
Precipitation  
Precipitation 0.00 in 0.13 in 1.84 in (2001)
Month to date precipitation 0.35 1.21  
Year to date precipitation 1.30 4.24  
Since 1 July precipitation 4.61 8.47  
Snow  
Snow 0.00 in - - ()
Month to date snowfall 0.0  
Year to date snowfall 0.0  
Since 1 July snowfall 0.0  
Snow Depth 0.00 in    
Sea Level Pressure  
Sea Level Pressure 30.27 in    
Wind  
Wind Speed 2 mph (SE)    
Max Wind Speed 9 mph    
Max Gust Speed 16 mph    
Visibility 10 miles    
Events      
T = Trace of Precipitation, MM = Missing Value Source: NWS Daily Summary

Daily Weather History Graph

Daily Weather History Graph

Search for Another Location

Airport:

Trip Planner

Search our weather history database for the weather conditions in past years. The results will help you decide how hot, cold, wet, or windy it might be!

Date:

Astronomy

Feb. 12, 2013 Rise Set
Actual Time 6:39 AM PST 5:33 PM PST
Civil Twilight 6:13 AM PST 5:59 PM PST
Nautical Twilight 5:44 AM PST 6:28 PM PST
Astronomical Twilight 5:15 AM PST 6:57 PM PST
Moon 7:49 AM PST (2/12) 8:27 PM PST (2/12)
Length of Visible Light 11h 45m
Length of Day
10h 54m
Waxing Crescent, 8% of the Moon is Illuminated
Feb 12
Waxing Crescent
Feb 17
First Quarter
Feb 25
Full
Mar 4
Last Quarter
Mar 11
New

Hourly Weather History & Observations

Time (PST) Temp. Windchill Dew Point Humidity Pressure Visibility Wind Dir Wind Speed Gust Speed Precip Events Conditions
12:53 AM 45.0 °F - 36.0 °F 71% 30.25 in 10.0 mi Calm Calm - N/A   Clear
1:53 AM 45.0 °F 43.5 °F 35.1 °F 68% 30.25 in 10.0 mi East 3.5 mph - N/A   Clear
2:53 AM 44.1 °F - 35.1 °F 71% 30.25 in 10.0 mi Calm Calm - N/A   Clear
3:53 AM 44.1 °F 41.5 °F 35.1 °F 71% 30.25 in 10.0 mi East 4.6 mph - N/A   Clear
4:53 AM 43.0 °F 40.3 °F 34.0 °F 71% 30.27 in 10.0 mi East 4.6 mph - N/A   Clear
5:53 AM 42.1 °F 39.2 °F 33.1 °F 70% 30.28 in 10.0 mi East 4.6 mph - N/A   Clear
6:53 AM 43.0 °F 39.5 °F 30.9 °F 62% 30.30 in 10.0 mi ENE 5.8 mph - N/A   Clear
7:53 AM 48.0 °F - 30.9 °F 52% 30.33 in 10.0 mi Calm Calm - N/A   Clear
8:53 AM 54.0 °F - 32.0 °F 43% 30.35 in 10.0 mi Calm Calm - N/A   Clear
9:53 AM 57.9 °F - 37.0 °F 46% 30.35 in 10.0 mi Calm Calm - N/A   Clear
10:53 AM 60.1 °F - 41.0 °F 49% 30.34 in 10.0 mi Calm Calm - N/A   Clear
11:53 AM 64.0 °F - 37.9 °F 38% 30.31 in 10.0 mi Calm Calm - N/A   Clear
12:53 PM 64.9 °F - 36.0 °F 34% 30.27 in 10.0 mi Calm Calm - N/A   Clear
1:53 PM 64.9 °F - 43.0 °F 45% 30.25 in 10.0 mi SW 6.9 mph - N/A   Clear
2:53 PM 64.9 °F - 39.9 °F 40% 30.24 in 10.0 mi SSW 5.8 mph - N/A   Clear
3:53 PM 63.0 °F - 37.0 °F 38% 30.24 in 10.0 mi SSW 5.8 mph - N/A   Clear
4:53 PM 63.0 °F - 37.0 °F 38% 30.24 in 10.0 mi Variable 5.8 mph - N/A   Clear
5:53 PM 60.1 °F - 24.1 °F 25% 30.24 in 10.0 mi Calm Calm - N/A   Clear
6:53 PM 57.0 °F - 30.0 °F 36% 30.25 in 10.0 mi WNW 3.5 mph - N/A   Clear
7:53 PM 55.9 °F - 39.0 °F 53% 30.26 in 10.0 mi Calm Calm - N/A   Clear
8:53 PM 53.1 °F - 39.9 °F 61% 30.27 in 10.0 mi Calm Calm - N/A   Clear
9:53 PM 51.1 °F - 39.0 °F 63% 30.27 in 10.0 mi Calm Calm - N/A   Clear
10:53 PM 50.0 °F - 36.0 °F 59% 30.27 in 10.0 mi Calm Calm - N/A   Clear
11:53 PM 48.0 °F - 37.9 °F 68% 30.27 in 10.0 mi Calm Calm - N/A   Clear